Regional Weather Roundup
Issued by NWS

Home | Current Version | Previous Version | Graphics & Text | Print | Product List | Glossary On
Versions: 1 2 3 4 5 6 7 8 9 10 11 12 13 14 15 16 17 18 19 20 21 22 23 24 25 26 27 28 29 30 31 32 33 34 35 36 37 38 39 40 41 42 43 44 45 46 47 48 49 50
000
ASUS45 KCYS 241310
RWRWY

WYOMING REGIONAL WEATHER ROUNDUP
NATIONAL WEATHER SERVICE CHEYENNE WY
600 AM MST TUE JAN 24 2017

NOTE:  "FAIR" INDICATES FEW OR NO CLOUDS BELOW 12,000 FEET
WITH NO SIGNIFICANT WEATHER AND/OR OBSTRUCTIONS TO VISIBILITY.

WYZ001-241400-
YELLOWSTONE NATIONAL PARK

CITY           SKY/WX    TMP DP  RH WIND       PRES   REMARKS
LK YELLOWSTONE   N/A     14  11  87 CALM      29.57R
W YELLOWSTONE  NOT AVBL

$$
WYZ002>013-054>058-071-098>099-241400-
NORTHERN WYOMING

CITY           SKY/WX    TMP DP  RH WIND       PRES   REMARKS
JACKSON        CLOUDY    19  19 100 CALM      29.57R
CODY           LGT SNOW  19  14  81 N15       29.69S WCI   5
GREYBULL       CLOUDY    21  17  84 E5        29.68R WCI  15
WORLAND        LGT SNOW  21  21 100 NW6       29.69R FOG     WCI  13
SHERIDAN       LGT SNOW  20  18  92 W3        29.78R FOG
BUFFALO        LGT SNOW  18  14  84 N18       29.70R FOG     WCI   2
GILLETTE       LGT SNOW  16  14  92 N12       29.70S VSB 1   WCI   3
HULETT         LGT SNOW  16  12  86 MISG      29.72R
NEWCASTLE      LGT SNOW  19  18  93 NW6       29.65R WCI  11

$$
WYZ014>020-022>026-101>103-241400-
CENTRAL WYOMING

CITY           SKY/WX    TMP DP  RH WIND       PRES   REMARKS
BIG PINEY      LGT SNOW  18  16  92 W6        29.55R FOG     WCI  10
PINEDALE       LGT SNOW  19  18  93 W9        29.54R WCI   9
DUBOIS         NOT AVBL
LANDER         LGT SNOW  19  17  92 CALM      29.62R FOG
RIVERTON       LGT SNOW  18  16  92 NE9       29.62R FOG     WCI   7
CASPER         CLOUDY    15  11  83 NE15      29.63R WCI   0
DOUGLAS        LGT SNOW  16  12  84 NW8       29.64R FOG     WCI   5

$$
WYZ021-027>030-104>119-241400-
SOUTHERN WYOMING

CITY           SKY/WX    TMP DP  RH WIND       PRES   REMARKS
EVANSTON       CLOUDY    17  13  84 SW10      29.58R WCI   5
ROCK SPRINGS   CLOUDY    19  16  88 W21       29.54R WCI   3
RAWLINS        FAIR      16  12  84 SW17      29.52R WCI   0
LARAMIE        FAIR      10   8  92 N7        29.48R WCI  -1
CHEYENNE       CLOUDY    24  22  91 N7        29.51R FOG     WCI  16
TORRINGTON     LGT SNOW  21  17  84 N10       29.61R FOG     WCI  10

$$



USA.gov is the U.S. government's official web portal to all federal, state and local government web resources and services.